User: anonymous   Login
Location: Unspecified
(0.0000°N, 0.0000°E)
Time: 20:01:11
(UTC+00:00)
Language:

COSMOS 2482 - Orbit

View from above orbital plane
View from above orbital plane
View from above satellite
View from above satellite

Ground track
Ground track

The orbit data is extracted from the following two-line orbital elements,

1 39057U 13001A   18172.21083886  .00000051  00000-0  29798-3 0  9998
2 39057  82.4994 235.5393 0025662 269.4197  90.3946 12.42892942246287
Epoch (UTC): 21 June 2018 05:03:36
Eccentricity: 0.0025662
inclination: 82.4994°
perigee height: 1474 km
apogee height: 1514 km
right ascension of ascending node: 235.5393°
argument of perigee: 269.4197°
revolutions per day: 12.42892942
mean anomaly at epoch: 90.3946°
orbit number at epoch: 24628

The dashed part of the orbit path shows where the satellite is in the earth's shadow,  

DLR